Weather History for Worland, WY

Change the Weather History Date:

Thursday, July 18, 2013

  Actual Average Record
Temperature  
Mean Temperature 80 °F 73 °F  
Max Temperature 96 °F 90 °F 104 °F (2006)
Min Temperature 63 °F 56 °F 47 °F (1968)
Degree Days  
Heating Degree Days 0 0  
Month to date heating degree days 0 10  
Since 1 June heating degree days 45 103  
Since 1 July heating degree days 0 10  
Cooling Degree Days 15 8  
Month to date cooling degree days 207 124  
Year to date cooling degree days 357 220  
Since 1 June cooling degree days 340 208  
Growing Degree Days 30 (Base 50)    
Moisture  
Dew Point 54 °F    
Average Humidity 53    
Maximum Humidity 87    
Minimum Humidity 19    
Precipitation  
Precipitation 0.03 in 0.02 in 0.52 in (1997)
Month to date precipitation 0.20 0.41  
Year to date precipitation 2.98 4.72  
Sea Level Pressure  
Sea Level Pressure 29.96 in    
Wind  
Wind Speed 6 mph (NNW)    
Max Wind Speed 21 mph    
Max Gust Speed 25 mph    
Visibility 10 miles    
Events Rain    
T = Trace of Precipitation, MM = Missing Value Source: NWS Daily Summary

Daily Weather History Graph

Daily Weather History Graph

Search for Another Location

Airport:

Trip Planner

Search our weather history database for the weather conditions in past years. The results will help you decide how hot, cold, wet, or windy it might be!

Date:

Astronomy

Jul. 18, 2013 Rise Set
Actual Time 5:46 AM MDT 8:49 PM MDT
Civil Twilight 5:11 AM MDT 9:24 PM MDT
Nautical Twilight 4:27 AM MDT 10:08 PM MDT
Astronomical Twilight 3:33 AM MDT 11:00 PM MDT
Moon 4:48 PM MDT (7/18) 1:40 AM MDT (7/18)
Length of Visible Light 16h 12m
Length of Day
15h 03m
Waxing Gibbous, 78% of the Moon is Illuminated
Jul 18
Waxing Gibbous
Jul 22
Full
Jul 29
Last Quarter
Aug 6
New
Aug 14
First Quarter

Hourly Weather History & Observations

Time (MDT) Temp. Heat Index Dew Point Humidity Pressure Visibility Wind Dir Wind Speed Gust Speed Precip Events Conditions
12:53 AM 73.0 °F - 57.0 °F 57% 30.04 in 10.0 mi WNW 19.6 mph 26.5 mph N/A   Overcast
1:53 AM 68.0 °F - 59.0 °F 73% 30.04 in 7.0 mi NW 8.1 mph - 0.02 in Rain Light Rain
2:53 AM 66.9 °F - 62.1 °F 84% 30.00 in 10.0 mi SSE 10.4 mph - 0.01 in   Mostly Cloudy
3:53 AM 66.0 °F - 61.0 °F 84% 30.00 in 10.0 mi SE 4.6 mph - N/A   Clear
4:53 AM 64.0 °F - 60.1 °F 87% 29.99 in 10.0 mi South 5.8 mph - N/A   Clear
5:53 AM 64.0 °F - 61.0 °F 90% 30.00 in 10.0 mi SW 5.8 mph - N/A   Clear
6:53 AM 64.0 °F - 60.1 °F 87% 30.01 in 10.0 mi SW 3.5 mph - N/A   Clear
7:53 AM 68.0 °F - 62.1 °F 81% 30.01 in 10.0 mi Calm Calm - N/A   Clear
8:53 AM 73.0 °F - 61.0 °F 66% 30.03 in 10.0 mi East 3.5 mph - N/A   Clear
9:53 AM 75.9 °F - 61.0 °F 60% 30.01 in 10.0 mi Calm Calm - N/A   Clear
10:53 AM 81.0 °F 80.7 °F 55.0 °F 41% 29.99 in 10.0 mi Variable 4.6 mph - N/A   Clear
11:53 AM 82.9 °F 81.9 °F 54.0 °F 37% 29.98 in 10.0 mi West 3.5 mph - N/A   Clear
12:53 PM 87.1 °F 84.9 °F 53.1 °F 31% 29.96 in 10.0 mi Variable 3.5 mph - N/A   Clear
1:53 PM 90.0 °F 87.7 °F 54.0 °F 29% 29.95 in 10.0 mi North 4.6 mph - N/A   Clear
2:53 PM 93.0 °F - 51.1 °F 24% 29.92 in 10.0 mi North 8.1 mph - N/A   Clear
3:53 PM 93.9 °F - 48.9 °F 21% 29.89 in 10.0 mi Variable 3.5 mph - N/A   Clear
4:53 PM 95.0 °F - 46.9 °F 19% 29.88 in 10.0 mi North 8.1 mph - N/A   Clear
5:53 PM 93.0 °F - 48.9 °F 22% 29.87 in 10.0 mi NNE 10.4 mph - N/A   Clear
6:53 PM 91.9 °F - 48.9 °F 23% 29.88 in 10.0 mi NNE 10.4 mph - N/A   Clear
7:53 PM 89.1 °F - 50.0 °F 26% 29.88 in 10.0 mi North 10.4 mph - N/A   Clear
8:53 PM 84.0 °F - 48.9 °F 29% 29.90 in 10.0 mi North 6.9 mph - N/A   Clear
9:53 PM 81.0 °F - 46.0 °F 29% 29.93 in 10.0 mi NNW 6.9 mph - N/A   Clear
10:53 PM 80.1 °F - 44.1 °F 28% 29.94 in 10.0 mi NW 5.8 mph - N/A   Scattered Clouds
11:53 PM 79.0 °F - 43.0 °F 28% 29.96 in 10.0 mi Calm Calm - N/A   Clear